Home   Weather   Meilen   Past weeks

Flag for Switzerland Past Weather in Meilen, Zurich, Switzerland — Yesterday and Last 2 Weeks

Now
65 °F

Mild.


Feels Like: 65 °F
Forecast: 55 / 80 °F
Wind: 5 mph from Northeast

Location: Zuerich-Fluntern

Current Time: Aug 30, 2016 at 10:54:30 PM

Latest Report: Aug 30, 2016 at 10:00 PM


Visibility: N/A

Pressure: 30.13 "Hg

Humidity: 76%

Dew Point: 57 °F

Location of MeilenLocation

Past Weather in Meilen — Graph

°F

Meilen Temperature Yesterday

Maximum temperature yesterday: 72 °F (at 3:00 AM)
Minimum temperature yesterday: 63 °F (at 12:00 PM)
Average temperature yesterday: 68 °F

High & Low Weather Summary for the Past Weeks

 TemperatureHumidityPressure
High89 °F (Aug 26, 4:00 PM)97% (Aug 18, 6:00 PM)30.39 "Hg (Aug 18, 6:00 PM)
Low52 °F (Aug 22, 5:00 AM)36% (Aug 28, 5:00 PM)29.80 "Hg (Aug 17, 6:00 PM)
Average68 °F74%30.06 "Hg
* Reported Aug 15 9:00 PM — Aug 30 9:00 PM, Meilen, Weather by CustomWeather, © 2016

Note: Actual official high and low records may vary slightly from our data, if they occured in-between our weather recording intervals... More about our weather records

Advertising

Meilen Weather History for the Previous 24 Hours

Scroll right to see more
 ConditionsComfort  
Time TempWeatherWind HumidityBarometerVisibility
9:00 PM
Tue, Aug 30
67 °FMild.3 mph71%30.13 "HgN/A
8:00 PM70 °FOvercast.3 mph64%30.11 "HgN/A
7:00 PM70 °FMild.5 mph65%30.09 "HgN/A
6:00 PM72 °FMild.6 mph60%30.10 "HgN/A
5:00 PM72 °FMild.5 mph61%30.11 "HgN/A
4:00 PM72 °FMild.7 mph60%30.11 "HgN/A
3:00 PM75 °FMild.10 mph54%30.11 "HgN/A
2:00 PM73 °FScattered clouds.9 mph58%30.12 "HgN/A
1:00 PM72 °FMild.12 mph59%30.12 "HgN/A
12:00 PM71 °FMild.13 mph59%30.13 "HgN/A
11:00 AM68 °FMild.9 mph69%30.15 "HgN/A
10:00 AM64 °FMild.7 mph81%30.17 "HgN/A
9:00 AM63 °FMild.7 mph84%30.17 "HgN/A
8:00 AM61 °FPartly sunny.3 mph85%30.17 "HgN/A
7:00 AM60 °FCool.5 mph89%30.16 "HgN/A
6:00 AM59 °FCool.3 mph91%30.16 "HgN/A
5:00 AM59 °FCool.3 mph88%30.16 "HgN/A
4:00 AM60 °FCool.3 mph85%30.17 "HgN/A
3:00 AM61 °FCool.2 mph85%30.17 "HgN/A
2:00 AM62 °FMild.2 mph87%30.18 "HgN/A
1:00 AM62 °FCool.1 mph86%30.20 "HgN/A
12:00 AM62 °FCool.2 mph83%30.19 "HgN/A
11:00 PM
Mon, Aug 29
66 °FMild.3 mph64%30.16 "HgN/A
10:00 PM66 °FMild.3 mph67%30.16 "HgN/A
Weather by CustomWeather, © 2016

See weather overviewHow to use our weather pages